User: anonymous   Login
Location: Bailen
(14.1842°N, 120.7958°E)
Time: 09:50:30
(UTC+00:00)
Language:

Cosmos 1603 - Orbit

View from above orbital plane
View from above orbital plane
View from above satellite
View from above satellite

Ground track
Ground track

The orbit is defined by the following mean orbital elements,

1 15333U          26076.14001084 +.00000000 +00000-0 +13858-3 0 00005
2 15333  71.0242 240.7467 0018734  16.6935 343.4800 14.14503175    09
Epoch (UTC): 17 March 2026 03:21:36
Eccentricity: 0.0018734
inclination: 71.0242°
perigee height: 830 km
apogee height: 858 km
right ascension of ascending node: 240.7467°
argument of perigee: 16.6935°
revolutions per day: 14.14503175
mean anomaly at epoch: 343.4800°

The dashed part of the orbit path shows where the satellite is in the earth's shadow,  

DLR